Location: Riedlingen
(48.1569°N, 9.4757°E)
Time: 03:18:11
(UTC+02:00)

ISS - Pass Details

Date: 17 May 2021
Orbit: 417 x 422 km, 51.6° (Epoch: 15 June)

Event Time Altitude Azimuth Distance (km) Brightness Sun altitude
Rises 00:26:47 0° 274° (W) 2,367 0.3 -21.5°
Reaches altitude 10° 00:28:56 10° 281° (WNW) 1,504 -0.7 -21.6°
Maximum altitude 00:32:11 45° 356° (N) 589 -2.6 -21.7°
Drops below altitude 10° 00:35:28 10° 71° (ENE) 1,508 -0.9 -21.8°
Sets 00:37:38 0° 77° (ENE) 2,374 0.1 -21.9°
